Orbital Elements at Epoch 2459200.5 (2020-Dec-17.0) TDB
Reference: JPL 18 (heliocentric ecliptic J2000)
Element | Value | Uncertainty (1-sigma) | Units |
e | .1816396422757527 | 4.6805e-08 | |
a | 2.684238607023581 | 1.793e-08 | au |
q | 2.196674466661053 | 1.262e-07 | au |
i | 10.0378162096743 | 5.4789e-06 | deg |
node | 20.30824065077171 | 2.8552e-05 | deg |
peri | 248.9132922673276 | 3.1981e-05 | deg |
M | 275.2769289712847 | 1.6215e-05 | deg |
tp | 2459578.532634972977 (2021-Dec-30.03263497) | 7.3588e-05 | TDB |
period | 1606.312742654786 4.40 | 1.6094e-05 4.406e-08 | d yr |
n | .2241157593041443 | 2.2455e-09 | deg/d |
Q | 3.171802747386109 | 2.1187e-08 | au |
|
| | Orbit Determination Parameters
Additional Information
|